Year,Month,Day,Hour,Minute,Value (Times are PST for insolation in W/m^2)
2009,11,05,00,00,0.00
2009,11,05,00,01,0.00
2009,11,05,00,02,0.00
2009,11,05,00,03,0.00
2009,11,05,00,04,0.00
2009,11,05,00,05,0.00
2009,11,05,00,06,0.00
2009,11,05,00,07,0.00
2009,11,05,00,08,0.00
2009,11,05,00,09,0.00
2009,11,05,00,10,0.00
2009,11,05,00,11,0.00
2009,11,05,00,12,0.00
2009,11,05,00,13,0.00
2009,11,05,00,14,0.00
2009,11,05,00,15,0.00
2009,11,05,00,16,0.00
2009,11,05,00,17,0.00
2009,11,05,00,18,0.00
2009,11,05,00,19,0.00
2009,11,05,00,20,0.00
2009,11,05,00,21,0.00
2009,11,05,00,22,0.00
2009,11,05,00,23,0.00
2009,11,05,00,24,0.00
2009,11,05,00,25,0.00
2009,11,05,00,26,0.00
2009,11,05,00,27,0.00
2009,11,05,00,28,0.00
2009,11,05,00,29,0.00
2009,11,05,00,30,0.00
2009,11,05,00,31,0.00
2009,11,05,00,32,0.00
2009,11,05,00,33,0.00
2009,11,05,00,34,0.00
2009,11,05,00,35,0.00
2009,11,05,00,36,0.00
2009,11,05,00,37,0.00
2009,11,05,00,38,0.00
2009,11,05,00,39,0.00
2009,11,05,00,40,0.00
2009,11,05,00,41,0.00
2009,11,05,00,42,0.00
2009,11,05,00,43,0.00
2009,11,05,00,44,0.00
2009,11,05,00,45,0.00
2009,11,05,00,46,0.00
2009,11,05,00,47,0.00
2009,11,05,00,48,0.00
2009,11,05,00,49,0.00
2009,11,05,00,50,0.00
2009,11,05,00,51,0.00
2009,11,05,00,52,0.00
2009,11,05,00,53,0.00
2009,11,05,00,54,0.00
2009,11,05,00,55,0.00
2009,11,05,00,56,0.00
2009,11,05,00,57,0.00
2009,11,05,00,58,0.00
2009,11,05,00,59,0.00
2009,11,05,01,00,0.00
2009,11,05,01,01,0.00
2009,11,05,01,02,0.00
2009,11,05,01,03,0.00
2009,11,05,01,04,0.00
2009,11,05,01,05,0.00
2009,11,05,01,06,0.00
2009,11,05,01,07,0.00
2009,11,05,01,08,0.00
2009,11,05,01,09,0.00
2009,11,05,01,10,0.00
2009,11,05,01,11,0.00
2009,11,05,01,12,0.00
2009,11,05,01,13,0.00
2009,11,05,01,14,0.00
2009,11,05,01,15,0.00
2009,11,05,01,16,0.00
2009,11,05,01,17,0.00
2009,11,05,01,18,0.00
2009,11,05,01,19,0.00
2009,11,05,01,20,0.00
2009,11,05,01,21,0.00
2009,11,05,01,22,0.00
2009,11,05,01,23,0.00
2009,11,05,01,24,0.00
2009,11,05,01,25,0.00
2009,11,05,01,26,0.00
2009,11,05,01,27,0.00
2009,11,05,01,28,0.00
2009,11,05,01,29,0.00
2009,11,05,01,30,0.00
2009,11,05,01,31,0.00
2009,11,05,01,32,0.00
2009,11,05,01,33,0.00
2009,11,05,01,34,0.00
2009,11,05,01,35,0.00
2009,11,05,01,36,0.00
2009,11,05,01,37,0.00
2009,11,05,01,38,0.00
2009,11,05,01,39,0.00
2009,11,05,01,40,0.00
2009,11,05,01,41,0.00
2009,11,05,01,42,0.00
2009,11,05,01,43,0.00
2009,11,05,01,44,0.00
2009,11,05,01,45,0.00
2009,11,05,01,46,0.00
2009,11,05,01,47,0.00
2009,11,05,01,48,0.00
2009,11,05,01,49,0.00
2009,11,05,01,50,0.00
2009,11,05,01,51,0.00
2009,11,05,01,52,0.00
2009,11,05,01,53,0.00
2009,11,05,01,54,0.00
2009,11,05,01,55,0.00
2009,11,05,01,56,0.00
2009,11,05,01,57,0.00
2009,11,05,01,58,0.00
2009,11,05,01,59,0.00
2009,11,05,02,00,0.00
2009,11,05,02,01,0.00
2009,11,05,02,02,0.00
2009,11,05,02,03,0.00
2009,11,05,02,04,0.00
2009,11,05,02,05,0.00
2009,11,05,02,06,0.00
2009,11,05,02,07,0.00
2009,11,05,02,08,0.00
2009,11,05,02,09,0.00
2009,11,05,02,10,0.00
2009,11,05,02,11,0.00
2009,11,05,02,12,0.00
2009,11,05,02,13,0.00
2009,11,05,02,14,0.00
2009,11,05,02,15,0.00
2009,11,05,02,16,0.00
2009,11,05,02,17,0.00
2009,11,05,02,18,0.00
2009,11,05,02,19,0.00
2009,11,05,02,20,0.00
2009,11,05,02,21,0.00
2009,11,05,02,22,0.00
2009,11,05,02,23,0.00
2009,11,05,02,24,0.00
2009,11,05,02,25,0.00
2009,11,05,02,26,0.00
2009,11,05,02,27,0.00
2009,11,05,02,28,0.00
2009,11,05,02,29,0.00
2009,11,05,02,30,0.00
2009,11,05,02,31,0.00
2009,11,05,02,32,0.00
2009,11,05,02,33,0.00
2009,11,05,02,34,0.00
2009,11,05,02,35,0.00
2009,11,05,02,36,0.00
2009,11,05,02,37,0.00
2009,11,05,02,38,0.00
2009,11,05,02,39,0.00
2009,11,05,02,40,0.00
2009,11,05,02,41,0.00
2009,11,05,02,42,0.00
2009,11,05,02,43,0.00
2009,11,05,02,44,0.00
2009,11,05,02,45,0.00
2009,11,05,02,46,0.00
2009,11,05,02,47,0.00
2009,11,05,02,48,0.00
2009,11,05,02,49,0.00
2009,11,05,02,50,0.00
2009,11,05,02,51,0.00
2009,11,05,02,52,0.00
2009,11,05,02,53,0.00
2009,11,05,02,54,0.00
2009,11,05,02,55,0.00
2009,11,05,02,56,0.00
2009,11,05,02,57,0.00
2009,11,05,02,58,0.00
2009,11,05,02,59,0.00
2009,11,05,03,00,0.00
2009,11,05,03,01,0.00
2009,11,05,03,02,0.00
2009,11,05,03,06,0.00
2009,11,05,03,07,0.00
2009,11,05,03,08,0.00
2009,11,05,03,09,0.00
2009,11,05,03,10,0.00
2009,11,05,03,11,0.00
2009,11,05,03,12,0.00
2009,11,05,03,13,0.00
2009,11,05,03,14,0.00
2009,11,05,03,15,0.00
2009,11,05,03,16,0.00
2009,11,05,03,17,0.00
2009,11,05,03,18,0.00
2009,11,05,03,19,0.00
2009,11,05,03,20,0.00
2009,11,05,03,21,0.00
2009,11,05,03,22,0.00
2009,11,05,03,23,0.00
2009,11,05,03,24,0.00
2009,11,05,03,25,0.00
2009,11,05,03,26,0.00
2009,11,05,03,27,0.00
2009,11,05,03,28,0.00
2009,11,05,03,29,0.00
2009,11,05,03,30,0.00
2009,11,05,03,31,0.00
2009,11,05,03,32,0.00
2009,11,05,03,33,0.00
2009,11,05,03,34,0.00
2009,11,05,03,35,0.00
2009,11,05,03,36,0.00
2009,11,05,03,37,0.00
2009,11,05,03,38,0.00
2009,11,05,03,39,0.00
2009,11,05,03,40,0.00
2009,11,05,03,41,0.00
2009,11,05,03,42,0.00
2009,11,05,03,43,0.00
2009,11,05,03,44,0.00
2009,11,05,03,45,0.00
2009,11,05,03,46,0.00
2009,11,05,03,47,0.00
2009,11,05,03,48,0.00
2009,11,05,03,49,0.00
2009,11,05,03,50,0.00
2009,11,05,03,51,0.00
2009,11,05,03,52,0.00
2009,11,05,03,53,0.00
2009,11,05,03,54,0.00
2009,11,05,03,55,0.00
2009,11,05,03,56,0.00
2009,11,05,03,57,0.00
2009,11,05,03,58,0.00
2009,11,05,03,59,0.00
2009,11,05,04,00,0.00
2009,11,05,04,01,0.00
2009,11,05,04,02,0.00
2009,11,05,04,03,0.00
2009,11,05,04,04,0.00
2009,11,05,04,05,0.00
2009,11,05,04,06,0.00
2009,11,05,04,07,0.00
2009,11,05,04,08,0.00
2009,11,05,04,09,0.00
2009,11,05,04,10,0.00
2009,11,05,04,11,0.00
2009,11,05,04,12,0.00
2009,11,05,04,13,0.00
2009,11,05,04,14,0.00
2009,11,05,04,15,0.00
2009,11,05,04,16,0.00
2009,11,05,04,17,0.00
2009,11,05,04,18,0.00
2009,11,05,04,19,0.00
2009,11,05,04,20,0.00
2009,11,05,04,21,0.00
2009,11,05,04,22,0.00
2009,11,05,04,23,0.00
2009,11,05,04,24,0.00
2009,11,05,04,25,0.00
2009,11,05,04,26,0.00
2009,11,05,04,27,0.00
2009,11,05,04,28,0.00
2009,11,05,04,29,0.00
2009,11,05,04,30,0.00
2009,11,05,04,31,0.00
2009,11,05,04,32,0.00
2009,11,05,04,33,0.00
2009,11,05,04,34,0.00
2009,11,05,04,35,0.00
2009,11,05,04,36,0.00
2009,11,05,04,37,0.00
2009,11,05,04,38,0.00
2009,11,05,04,39,0.00
2009,11,05,04,40,0.00
2009,11,05,04,41,0.00
2009,11,05,04,42,0.00
2009,11,05,04,43,0.00
2009,11,05,04,44,0.00
2009,11,05,04,45,0.00
2009,11,05,04,46,0.00
2009,11,05,04,47,0.00
2009,11,05,04,48,0.00
2009,11,05,04,49,0.00
2009,11,05,04,50,0.00
2009,11,05,04,51,0.00
2009,11,05,04,52,0.00
2009,11,05,04,53,0.00
2009,11,05,04,54,0.00
2009,11,05,04,55,0.00
2009,11,05,04,56,0.00
2009,11,05,04,57,0.00
2009,11,05,04,58,0.00
2009,11,05,04,59,0.00
2009,11,05,05,00,0.00
2009,11,05,05,01,0.00
2009,11,05,05,02,0.00
2009,11,05,05,03,0.00
2009,11,05,05,04,0.00
2009,11,05,05,05,0.00
2009,11,05,05,06,0.00
2009,11,05,05,07,0.00
2009,11,05,05,08,0.00
2009,11,05,05,09,0.00
2009,11,05,05,10,0.00
2009,11,05,05,11,0.00
2009,11,05,05,12,0.00
2009,11,05,05,13,0.00
2009,11,05,05,14,0.00
2009,11,05,05,15,0.00
2009,11,05,05,16,0.00
2009,11,05,05,17,0.00
2009,11,05,05,18,0.00
2009,11,05,05,19,0.00
2009,11,05,05,20,0.00
2009,11,05,05,21,0.00
2009,11,05,05,22,0.00
2009,11,05,05,23,0.00
2009,11,05,05,24,0.00
2009,11,05,05,25,0.00
2009,11,05,05,26,0.00
2009,11,05,05,27,0.00
2009,11,05,05,28,0.00
2009,11,05,05,29,0.00
2009,11,05,05,30,0.00
2009,11,05,05,31,0.00
2009,11,05,05,32,0.00
2009,11,05,05,33,0.00
2009,11,05,05,34,0.00
2009,11,05,05,35,0.00
2009,11,05,05,36,0.00
2009,11,05,05,37,0.00
2009,11,05,05,38,0.00
2009,11,05,05,39,0.00
2009,11,05,05,40,0.00
2009,11,05,05,41,0.00
2009,11,05,05,42,0.00
2009,11,05,05,43,0.00
2009,11,05,05,44,0.00
2009,11,05,05,45,0.00
2009,11,05,05,46,0.00
2009,11,05,05,47,0.00
2009,11,05,05,48,0.00
2009,11,05,05,49,0.00
2009,11,05,05,50,0.00
2009,11,05,05,51,0.00
2009,11,05,05,52,0.00
2009,11,05,05,53,0.00
2009,11,05,05,54,0.00
2009,11,05,05,55,0.00
2009,11,05,05,56,0.00
2009,11,05,05,57,0.00
2009,11,05,05,58,0.00
2009,11,05,05,59,0.00
2009,11,05,06,00,0.00
2009,11,05,06,01,0.00
2009,11,05,06,02,0.00
2009,11,05,06,03,0.00
2009,11,05,06,04,0.00
2009,11,05,06,05,0.00
2009,11,05,06,06,0.00
2009,11,05,06,07,0.00
2009,11,05,06,08,0.00
2009,11,05,06,09,0.00
2009,11,05,06,10,0.00
2009,11,05,06,11,0.00
2009,11,05,06,12,0.00
2009,11,05,06,13,0.00
2009,11,05,06,14,0.00
2009,11,05,06,15,0.00
2009,11,05,06,16,0.00
2009,11,05,06,17,0.00
2009,11,05,06,18,0.00
2009,11,05,06,19,0.00
2009,11,05,06,20,0.00
2009,11,05,06,21,0.00
2009,11,05,06,22,0.00
2009,11,05,06,23,0.00
2009,11,05,06,24,0.00
2009,11,05,06,25,0.00
2009,11,05,06,26,0.00
2009,11,05,06,27,0.00
2009,11,05,06,28,0.00
2009,11,05,06,29,0.00
2009,11,05,06,30,0.00
2009,11,05,06,31,0.00
2009,11,05,06,32,0.00
2009,11,05,06,33,0.00
2009,11,05,06,34,0.00
2009,11,05,06,35,0.00
2009,11,05,06,36,0.00
2009,11,05,06,37,0.00
2009,11,05,06,38,0.00
2009,11,05,06,39,0.00
2009,11,05,06,40,0.00
2009,11,05,06,41,0.00
2009,11,05,06,42,0.00
2009,11,05,06,43,0.00
2009,11,05,06,44,0.00
2009,11,05,06,45,0.00
2009,11,05,06,46,0.00
2009,11,05,06,47,0.00
2009,11,05,06,48,0.00
2009,11,05,06,49,0.00
2009,11,05,06,50,0.00
2009,11,05,06,51,0.00
2009,11,05,06,52,0.00
2009,11,05,06,53,0.00
2009,11,05,06,54,0.00
2009,11,05,06,55,0.00
2009,11,05,06,56,0.00
2009,11,05,06,57,0.00
2009,11,05,06,58,0.00
2009,11,05,06,59,0.00
2009,11,05,07,00,0.00
2009,11,05,07,01,0.00
2009,11,05,07,02,0.00
2009,11,05,07,03,0.00
2009,11,05,07,04,0.00
2009,11,05,07,05,0.00
2009,11,05,07,06,0.00
2009,11,05,07,07,0.00
2009,11,05,07,08,0.00
2009,11,05,07,09,0.00
2009,11,05,07,10,0.00
2009,11,05,07,11,0.00
2009,11,05,07,12,0.00
2009,11,05,07,13,0.00
2009,11,05,07,14,0.00
2009,11,05,07,15,0.00
2009,11,05,07,16,0.00
2009,11,05,07,17,0.00
2009,11,05,07,18,0.00
2009,11,05,07,19,0.00
2009,11,05,07,20,0.00
2009,11,05,07,21,0.00
2009,11,05,07,22,0.00
2009,11,05,07,23,0.00
2009,11,05,07,24,0.00
2009,11,05,07,25,0.00
2009,11,05,07,26,0.00
2009,11,05,07,27,0.00
2009,11,05,07,28,0.00
2009,11,05,07,29,0.00
2009,11,05,07,30,0.00
2009,11,05,07,31,0.00
2009,11,05,07,32,0.00
2009,11,05,07,33,0.00
2009,11,05,07,34,0.00
2009,11,05,07,35,0.00
2009,11,05,07,36,0.00
2009,11,05,07,37,0.00
2009,11,05,07,38,0.00
2009,11,05,07,39,0.00
2009,11,05,07,40,0.00
2009,11,05,07,41,0.00
2009,11,05,07,42,0.00
2009,11,05,07,43,0.00
2009,11,05,07,44,0.00
2009,11,05,07,45,0.00
2009,11,05,07,46,1.40
2009,11,05,07,47,5.00
2009,11,05,07,48,5.00
2009,11,05,07,49,5.00
2009,11,05,07,50,5.00
2009,11,05,07,51,4.20
2009,11,05,07,52,1.70
2009,11,05,07,53,5.00
2009,11,05,07,54,6.10
2009,11,05,07,55,7.00
2009,11,05,07,56,7.00
2009,11,05,07,57,6.80
2009,11,05,07,58,5.00
2009,11,05,07,59,5.00
2009,11,05,08,00,5.00
2009,11,05,08,01,5.00
2009,11,05,08,02,5.00
2009,11,05,08,03,5.00
2009,11,05,08,04,5.00
2009,11,05,08,05,5.00
2009,11,05,08,06,1.70
2009,11,05,08,07,0.00
2009,11,05,08,08,0.00
2009,11,05,08,09,1.00
2009,11,05,08,10,5.00
2009,11,05,08,11,5.00
2009,11,05,08,12,5.00
2009,11,05,08,13,6.80
2009,11,05,08,14,9.10
2009,11,05,08,15,11.00
2009,11,05,08,16,11.40
2009,11,05,08,17,12.00
2009,11,05,08,18,13.30
2009,11,05,08,19,12.20
2009,11,05,08,20,13.80
2009,11,05,08,21,14.00
2009,11,05,08,22,14.80
2009,11,05,08,23,17.00
2009,11,05,08,24,18.80
2009,11,05,08,25,19.00
2009,11,05,08,26,19.00
2009,11,05,08,27,18.80
2009,11,05,08,28,17.20
2009,11,05,08,29,16.00
2009,11,05,08,30,13.40
2009,11,05,08,31,12.00
2009,11,05,08,32,14.30
2009,11,05,08,33,16.70
2009,11,05,08,34,18.50
2009,11,05,08,35,20.20
2009,11,05,08,36,22.60
2009,11,05,08,37,24.90
2009,11,05,08,38,25.00
2009,11,05,08,39,23.70
2009,11,05,08,40,20.10
2009,11,05,08,41,18.50
2009,11,05,08,42,18.00
2009,11,05,08,43,18.10
2009,11,05,08,44,19.00
2009,11,05,08,45,19.00
2009,11,05,08,46,19.00
2009,11,05,08,47,19.00
2009,11,05,08,48,18.20
2009,11,05,08,49,18.00
2009,11,05,08,50,17.60
2009,11,05,08,51,15.20
2009,11,05,08,52,14.00
2009,11,05,08,53,14.00
2009,11,05,08,54,15.80
2009,11,05,08,55,18.10
2009,11,05,08,56,19.50
2009,11,05,08,57,21.00
2009,11,05,08,58,23.20
2009,11,05,08,59,27.20
2009,11,05,09,00,26.20
2009,11,05,09,01,25.90
2009,11,05,09,02,23.60
2009,11,05,09,03,19.00
2009,11,05,09,04,19.00
2009,11,05,09,05,18.30
2009,11,05,09,06,18.90
2009,11,05,09,07,18.80
2009,11,05,09,08,17.40
2009,11,05,09,09,15.20
2009,11,05,09,10,16.00
2009,11,05,09,11,18.80
2009,11,05,09,12,18.10
2009,11,05,09,13,22.70
2009,11,05,09,14,19.30
2009,11,05,09,15,18.50
2009,11,05,09,16,21.00
2009,11,05,09,17,19.40
2009,11,05,09,18,24.70
2009,11,05,09,19,22.70
2009,11,05,09,20,21.00
2009,11,05,09,21,23.00
2009,11,05,09,22,25.00
2009,11,05,09,23,25.00
2009,11,05,09,24,23.00
2009,11,05,09,25,26.30
2009,11,05,09,26,28.00
2009,11,05,09,27,31.50
2009,11,05,09,28,35.00
2009,11,05,09,29,39.20
2009,11,05,09,30,40.40
2009,11,05,09,31,47.40
2009,11,05,09,32,49.00
2009,11,05,09,33,50.10
2009,11,05,09,34,49.60
2009,11,05,09,35,47.50
2009,11,05,09,36,47.00
2009,11,05,09,37,46.20
2009,11,05,09,38,45.20
2009,11,05,09,39,47.00
2009,11,05,09,40,46.30
2009,11,05,09,41,46.80
2009,11,05,09,42,47.00
2009,11,05,09,43,45.10
2009,11,05,09,44,38.70
2009,11,05,09,45,35.80
2009,11,05,09,46,32.70
2009,11,05,09,47,26.70
2009,11,05,09,48,23.20
2009,11,05,09,49,25.30
2009,11,05,09,50,27.80
2009,11,05,09,51,31.80
2009,11,05,09,52,25.20
2009,11,05,09,53,21.10
2009,11,05,09,54,24.70
2009,11,05,09,55,21.70
2009,11,05,09,56,19.00
2009,11,05,09,57,19.00
2009,11,05,09,58,22.10
2009,11,05,09,59,31.50
2009,11,05,10,00,39.50
2009,11,05,10,01,38.70
2009,11,05,10,02,47.20
2009,11,05,10,03,53.00
2009,11,05,10,04,53.00
2009,11,05,10,05,59.70
2009,11,05,10,06,60.40
2009,11,05,10,07,84.20
2009,11,05,10,08,88.20
2009,11,05,10,09,90.00
2009,11,05,10,10,84.20
2009,11,05,10,11,77.90
2009,11,05,10,12,75.20
2009,11,05,10,13,62.70
2009,11,05,10,14,55.80
2009,11,05,10,15,53.30
2009,11,05,10,16,49.70
2009,11,05,10,17,54.30
2009,11,05,10,18,59.40
2009,11,05,10,19,58.00
2009,11,05,10,20,58.00
2009,11,05,10,21,59.40
2009,11,05,10,22,54.70
2009,11,05,10,23,63.70
2009,11,05,10,24,79.50
2009,11,05,10,25,98.40
2009,11,05,10,26,108.10
2009,11,05,10,27,104.00
2009,11,05,10,28,102.20
2009,11,05,10,29,80.40
2009,11,05,10,30,72.40
2009,11,05,10,31,60.90
2009,11,05,10,32,58.00
2009,11,05,10,33,68.40
2009,11,05,10,34,65.20
2009,11,05,10,35,57.80
2009,11,05,10,36,56.60
2009,11,05,10,37,60.50
2009,11,05,10,38,65.10
2009,11,05,10,39,66.40
2009,11,05,10,40,65.00
2009,11,05,10,41,59.10
2009,11,05,10,42,54.60
2009,11,05,10,43,52.00
2009,11,05,10,44,38.80
2009,11,05,10,45,32.20
2009,11,05,10,46,32.80
2009,11,05,10,47,33.10
2009,11,05,10,48,43.20
2009,11,05,10,49,44.10
2009,11,05,10,50,49.00
2009,11,05,10,51,51.00
2009,11,05,10,52,49.70
2009,11,05,10,53,62.00
2009,11,05,10,54,58.70
2009,11,05,10,55,53.60
2009,11,05,10,56,57.20
2009,11,05,10,57,58.00
2009,11,05,10,58,49.40
2009,11,05,10,59,37.20
2009,11,05,11,00,29.30
2009,11,05,11,01,26.40
2009,11,05,11,02,25.00
2009,11,05,11,03,25.00
2009,11,05,11,04,40.40
2009,11,05,11,05,47.40
2009,11,05,11,06,55.20
2009,11,05,11,07,60.20
2009,11,05,11,08,70.70
2009,11,05,11,09,74.00
2009,11,05,11,10,67.70
2009,11,05,11,11,67.00
2009,11,05,11,12,69.20
2009,11,05,11,13,66.50
2009,11,05,11,14,63.00
2009,11,05,11,15,81.80
2009,11,05,11,16,80.60
2009,11,05,11,17,76.00
2009,11,05,11,18,65.00
2009,11,05,11,19,50.90
2009,11,05,11,20,41.20
2009,11,05,11,21,39.90
2009,11,05,11,22,41.90
2009,11,05,11,23,42.00
2009,11,05,11,24,42.00
2009,11,05,11,25,40.70
2009,11,05,11,26,41.40
2009,11,05,11,27,37.30
2009,11,05,11,28,32.50
2009,11,05,11,29,32.30
2009,11,05,11,30,33.50
2009,11,05,11,31,32.10
2009,11,05,11,32,32.20
2009,11,05,11,33,30.00
2009,11,05,11,34,29.30
2009,11,05,11,35,26.00
2009,11,05,11,36,25.50
2009,11,05,11,37,25.00
2009,11,05,11,38,25.00
2009,11,05,11,39,25.00
2009,11,05,11,40,24.60
2009,11,05,11,41,22.20
2009,11,05,11,42,19.90
2009,11,05,11,43,21.80
2009,11,05,11,44,23.00
2009,11,05,11,45,25.00
2009,11,05,11,46,25.00
2009,11,05,11,47,25.00
2009,11,05,11,48,21.50
2009,11,05,11,49,19.00
2009,11,05,11,50,20.60
2009,11,05,11,51,23.00
2009,11,05,11,52,23.50
2009,11,05,11,53,25.00
2009,11,05,11,54,25.00
2009,11,05,11,55,25.80
2009,11,05,11,56,31.60
2009,11,05,11,57,33.50
2009,11,05,11,58,39.20
2009,11,05,11,59,40.00
2009,11,05,12,00,40.00
2009,11,05,12,01,36.20
2009,11,05,12,02,39.70
2009,11,05,12,03,48.00
2009,11,05,12,04,53.30
2009,11,05,12,05,55.60
2009,11,05,12,06,56.70
2009,11,05,12,07,56.00
2009,11,05,12,08,62.00
2009,11,05,12,09,69.80
2009,11,05,12,10,67.70
2009,11,05,12,11,63.50
2009,11,05,12,12,59.60
2009,11,05,12,13,59.60
2009,11,05,12,14,63.00
2009,11,05,12,15,70.60
2009,11,05,12,16,64.30
2009,11,05,12,17,62.50
2009,11,05,12,18,56.60
2009,11,05,12,19,48.50
2009,11,05,12,20,39.80
2009,11,05,12,21,34.30
2009,11,05,12,22,19.00
2009,11,05,12,23,19.00
2009,11,05,12,24,19.00
2009,11,05,12,25,22.00
2009,11,05,12,26,23.20
2009,11,05,12,27,26.40
2009,11,05,12,28,31.10
2009,11,05,12,29,35.90
2009,11,05,12,30,35.00
2009,11,05,12,31,35.00
2009,11,05,12,32,28.60
2009,11,05,12,33,33.00
2009,11,05,12,34,30.90
2009,11,05,12,35,30.40
2009,11,05,12,36,34.00
2009,11,05,12,37,43.80
2009,11,05,12,38,56.40
2009,11,05,12,39,70.20
2009,11,05,12,40,58.00
2009,11,05,12,41,58.00
2009,11,05,12,42,58.00
2009,11,05,12,43,56.40
2009,11,05,12,44,60.20
2009,11,05,12,45,49.80
2009,11,05,12,46,46.60
2009,11,05,12,47,44.70
2009,11,05,12,48,40.20
2009,11,05,12,49,33.90
2009,11,05,12,50,32.20
2009,11,05,12,51,34.20
2009,11,05,12,52,42.40
2009,11,05,12,53,58.10
2009,11,05,12,54,62.20
2009,11,05,12,55,61.80
2009,11,05,12,56,57.60
2009,11,05,12,57,56.70
2009,11,05,12,58,55.90
2009,11,05,12,59,49.20
2009,11,05,13,00,39.80
2009,11,05,13,01,39.00
2009,11,05,13,02,37.60
2009,11,05,13,03,43.80
2009,11,05,13,04,52.70
2009,11,05,13,05,56.80
2009,11,05,13,06,64.80
2009,11,05,13,07,67.00
2009,11,05,13,08,66.20
2009,11,05,13,09,62.60
2009,11,05,13,10,64.60
2009,11,05,13,11,71.60
2009,11,05,13,12,75.60
2009,11,05,13,13,77.00
2009,11,05,13,14,77.00
2009,11,05,13,15,67.90
2009,11,05,13,16,56.30
2009,11,05,13,17,88.30
2009,11,05,13,18,119.40
2009,11,05,13,19,139.00
2009,11,05,13,20,135.70
2009,11,05,13,21,121.40
2009,11,05,13,22,109.90
2009,11,05,13,23,99.40
2009,11,05,13,24,91.30
2009,11,05,13,25,82.00
2009,11,05,13,26,79.60
2009,11,05,13,27,96.70
2009,11,05,13,28,120.10
2009,11,05,13,29,132.60
2009,11,05,13,30,136.70
2009,11,05,13,31,131.20
2009,11,05,13,32,122.90
2009,11,05,13,33,117.10
2009,11,05,13,34,121.80
2009,11,05,13,35,133.20
2009,11,05,13,36,140.90
2009,11,05,13,37,148.50
2009,11,05,13,38,152.40
2009,11,05,13,39,155.00
2009,11,05,13,40,153.60
2009,11,05,13,41,149.40
2009,11,05,13,42,146.00
2009,11,05,13,43,145.60
2009,11,05,13,44,141.50
2009,11,05,13,45,134.50
2009,11,05,13,46,129.20
2009,11,05,13,47,128.00
2009,11,05,13,48,128.40
2009,11,05,13,49,136.00
2009,11,05,13,50,132.00
2009,11,05,13,51,120.30
2009,11,05,13,52,106.10
2009,11,05,13,53,92.50
2009,11,05,13,54,75.80
2009,11,05,13,55,73.00
2009,11,05,13,56,75.20
2009,11,05,13,57,71.60
2009,11,05,13,58,73.10
2009,11,05,13,59,79.60
2009,11,05,14,00,81.20
2009,11,05,14,01,83.20
2009,11,05,14,02,84.00
2009,11,05,14,03,79.60
2009,11,05,14,04,71.30
2009,11,05,14,05,80.40
2009,11,05,14,06,99.50
2009,11,05,14,07,124.10
2009,11,05,14,08,137.80
2009,11,05,14,09,139.20
2009,11,05,14,10,123.80
2009,11,05,14,11,101.20
2009,11,05,14,12,88.10
2009,11,05,14,13,76.50
2009,11,05,14,14,72.00
2009,11,05,14,15,61.60
2009,11,05,14,16,53.90
2009,11,05,14,17,49.60
2009,11,05,14,18,49.90
2009,11,05,14,19,54.70
2009,11,05,14,20,53.80
2009,11,05,14,21,44.40
2009,11,05,14,22,34.00
2009,11,05,14,23,28.30
2009,11,05,14,24,33.00
2009,11,05,14,25,32.00
2009,11,05,14,26,28.90
2009,11,05,14,27,29.40
2009,11,05,14,28,32.20
2009,11,05,14,29,31.60
2009,11,05,14,30,26.50
2009,11,05,14,31,28.00
2009,11,05,14,32,27.00
2009,11,05,14,33,23.90
2009,11,05,14,34,21.50
2009,11,05,14,35,20.50
2009,11,05,14,36,15.60
2009,11,05,14,37,14.00
2009,11,05,14,38,14.00
2009,11,05,14,39,12.60
2009,11,05,14,40,12.00
2009,11,05,14,41,13.90
2009,11,05,14,42,15.80
2009,11,05,14,43,23.00
2009,11,05,14,44,29.90
2009,11,05,14,45,35.80
2009,11,05,14,46,37.00
2009,11,05,14,47,47.10
2009,11,05,14,48,49.70
2009,11,05,14,49,47.90
2009,11,05,14,50,46.20
2009,11,05,14,51,42.40
2009,11,05,14,52,33.50
2009,11,05,14,53,26.40
2009,11,05,14,54,28.00
2009,11,05,14,55,26.60
2009,11,05,14,56,25.00
2009,11,05,14,57,27.50
2009,11,05,14,58,32.70
2009,11,05,14,59,32.30
2009,11,05,15,00,31.80
2009,11,05,15,01,38.30
2009,11,05,15,02,40.10
2009,11,05,15,03,34.10
2009,11,05,15,04,30.00
2009,11,05,15,05,29.60
2009,11,05,15,06,28.70
2009,11,05,15,07,29.00
2009,11,05,15,08,26.60
2009,11,05,15,09,29.50
2009,11,05,15,10,36.40
2009,11,05,15,11,36.90
2009,11,05,15,12,27.10
2009,11,05,15,13,22.00
2009,11,05,15,14,19.60
2009,11,05,15,15,18.10
2009,11,05,15,16,16.20
2009,11,05,15,17,14.60
2009,11,05,15,18,10.20
2009,11,05,15,19,8.00
2009,11,05,15,20,7.00
2009,11,05,15,21,5.10
2009,11,05,15,22,6.80
2009,11,05,15,23,7.00
2009,11,05,15,24,7.00
2009,11,05,15,25,7.00
2009,11,05,15,26,8.40
2009,11,05,15,27,10.60
2009,11,05,15,28,18.10
2009,11,05,15,29,18.10
2009,11,05,15,30,16.00
2009,11,05,15,31,14.70
2009,11,05,15,32,12.40
2009,11,05,15,33,9.40
2009,11,05,15,34,7.00
2009,11,05,15,35,7.00
2009,11,05,15,36,7.90
2009,11,05,15,37,10.20
2009,11,05,15,38,11.80
2009,11,05,15,39,12.00
2009,11,05,15,40,14.60
2009,11,05,15,41,18.00
2009,11,05,15,42,18.50
2009,11,05,15,43,19.00
2009,11,05,15,44,18.20
2009,11,05,15,45,13.90
2009,11,05,15,46,12.00
2009,11,05,15,47,12.00
2009,11,05,15,48,11.60
2009,11,05,15,49,9.80
2009,11,05,15,50,9.00
2009,11,05,15,51,11.00
2009,11,05,15,52,11.00
2009,11,05,15,53,11.00
2009,11,05,15,54,11.00
2009,11,05,15,55,11.00
2009,11,05,15,56,9.20
2009,11,05,15,57,9.00
2009,11,05,15,58,9.00
2009,11,05,15,59,9.00
2009,11,05,16,00,7.80
2009,11,05,16,01,7.00
2009,11,05,16,02,8.80
2009,11,05,16,03,11.00
2009,11,05,16,04,11.00
2009,11,05,16,05,11.00
2009,11,05,16,06,9.90
2009,11,05,16,07,7.50
2009,11,05,16,08,5.10
2009,11,05,16,09,5.00
2009,11,05,16,10,5.00
2009,11,05,16,11,5.00
2009,11,05,16,12,5.00
2009,11,05,16,13,5.00
2009,11,05,16,14,5.00
2009,11,05,16,15,5.00
2009,11,05,16,16,3.50
2009,11,05,16,17,2.40
2009,11,05,16,18,5.00
2009,11,05,16,19,0.80
2009,11,05,16,20,0.00
2009,11,05,16,21,0.00
2009,11,05,16,22,0.00
2009,11,05,16,23,0.00
2009,11,05,16,24,0.00
2009,11,05,16,25,0.00
2009,11,05,16,26,0.00
2009,11,05,16,27,0.00
2009,11,05,16,28,0.00
2009,11,05,16,29,0.00
2009,11,05,16,30,0.00
2009,11,05,16,31,0.00
2009,11,05,16,32,0.00
2009,11,05,16,33,0.00
2009,11,05,16,34,0.00
2009,11,05,16,35,0.00
2009,11,05,16,36,0.00
2009,11,05,16,37,0.00
2009,11,05,16,38,0.00
2009,11,05,16,39,0.00
2009,11,05,16,40,0.00
2009,11,05,16,41,0.00
2009,11,05,16,42,0.00
2009,11,05,16,43,0.00
2009,11,05,16,44,0.00
2009,11,05,16,45,0.00
2009,11,05,16,46,0.00
2009,11,05,16,47,0.00
2009,11,05,16,48,0.00
2009,11,05,16,49,0.00
2009,11,05,16,50,0.00
2009,11,05,16,51,0.00
2009,11,05,16,52,0.00
2009,11,05,16,53,0.00
2009,11,05,16,54,0.00
2009,11,05,16,55,0.00
2009,11,05,16,56,0.00
2009,11,05,16,57,0.00
2009,11,05,16,58,0.00
2009,11,05,16,59,0.00
2009,11,05,17,00,0.00
2009,11,05,17,01,0.00
2009,11,05,17,02,0.00
2009,11,05,17,03,0.00
2009,11,05,17,04,0.00
2009,11,05,17,05,0.00
2009,11,05,17,06,0.00
2009,11,05,17,07,0.00
2009,11,05,17,08,0.00
2009,11,05,17,09,0.00
2009,11,05,17,10,0.00
2009,11,05,17,11,0.00
2009,11,05,17,12,0.00
2009,11,05,17,13,0.00
2009,11,05,17,14,0.00
2009,11,05,17,15,0.00
2009,11,05,17,16,0.00
2009,11,05,17,17,0.00
2009,11,05,17,18,0.00
2009,11,05,17,19,0.00
2009,11,05,17,20,0.00
2009,11,05,17,21,0.00
2009,11,05,17,22,0.00
2009,11,05,17,23,0.00
2009,11,05,17,24,0.00
2009,11,05,17,25,0.00
2009,11,05,17,26,0.00
2009,11,05,17,27,0.00
2009,11,05,17,28,0.00
2009,11,05,17,29,0.00
2009,11,05,17,30,0.00
2009,11,05,17,31,0.00
2009,11,05,17,32,0.00
2009,11,05,17,33,0.00
2009,11,05,17,34,0.00
2009,11,05,17,35,0.00
2009,11,05,17,36,0.00
2009,11,05,17,37,0.00
2009,11,05,17,38,0.00
2009,11,05,17,39,0.00
2009,11,05,17,40,0.00
2009,11,05,17,41,0.00
2009,11,05,17,42,0.00
2009,11,05,17,43,0.00
2009,11,05,17,44,0.00
2009,11,05,17,45,0.00
2009,11,05,17,46,0.00
2009,11,05,17,47,0.00